Wind_Speed
4 4 4 4 5 4 6 7 7 6 8 9 9 8 9 9 8 8 8 8 9 9 10 9 9 8 8 8 7 7 7 7 7 7 8 8 8 8 9 9 9 9 9 8 8 7 7 6 5
6 5 4 4 4 5 6 7 7 7 9 11 10 9 9 8 7 8 8 9 9 9 9 9 8 8 8 8 8 8 8 7 8 8 8 8 8 8 8 8 8 8 9 8 8 8 7 7 6
8 6 4 3 3 4 5 6 7 9 10 12 14 13 12 10 9 9 9 9 9 9 9 9 8 8 8 8 9 9 8 8 8 8 8 8 8 8 9 9 9 9 9 9 9 9 9 8 7
10 9 6 3 3 4 5 6 8 10 13 15 16 16 16 14 11 11 11 10 10 10 10 9 9 9 9 10 10 10 9 10 10 10 9 9 9 9 9 10 10 10 10 10 10 10 10 10 9
13 11 8 5 6 7 5 6 9 13 16 17 18 19 19 17 14 13 12 11 11 11 11 11 11 11 10 10 10 10 10 10 10 11 11 11 11 11 11 11 11 11 11 11 11 12 12 11 11
15 13 10 6 7 7 4 6 10 15 18 19 20 21 20 17 15 14 13 12 11 11 11 12 12 11 12 12 11 11 11 11 12 12 12 12 12 13 12 12 12 12 12 12 13 13 14 14 13
18 16 12 8 7 5 3 6 10 15 19 21 21 21 20 18 16 15 13 12 12 11 11 12 12 12 12 12 12 12 12 13 14 14 14 14 14 14 14 14 14 14 14 14 14 15 15 16 15
21 19 14 11 11 9 8 7 11 16 20 22 22 23 22 21 19 16 14 12 12 12 12 12 13 13 13 14 14 14 14 15 15 16 17 17 17 17 17 17 17 17 17 17 17 17 17 18 18
24 20 16 14 15 14 12 10 12 17 20 23 24 25 24 24 23 18 16 14 14 14 13 13 14 15 15 16 16 17 17 17 18 19 19 20 20 20 20 20 20 20 19 19 19 19 19 20 20
26 22 18 18 19 19 16 14 14 20 23 25 26 27 27 27 26 23 20 18 17 16 15 15 16 16 17 18 18 19 20 20 21 21 22 22 22 23 24 24 24 23 22 21 21 21 21 21 22
26 23 20 20 21 22 21 18 18 23 26 27 29 29 30 31 30 27 24 21 20 19 17 17 16 17 19 20 21 21 22 22 23 23 24 25 25 25 26 26 25 24 23 23 23 22 23 23 23
25 23 21 21 22 24 22 21 21 24 27 29 31 33 33 33 32 29 25 24 22 20 18 16 18 19 20 22 23 24 24 25 26 27 28 28 27 27 28 28 27 25 25 25 25 25 25 25 25
23 21 20 19 21 23 22 23 25 27 29 31 33 34 34 31 29 28 26 25 22 21 20 20 20 20 21 23 25 26 26 26 27 28 30 30 30 30 30 30 29 28 28 28 28 28 27 26 26
18 17 16 15 17 18 19 22 25 27 28 30 31 31 31 30 27 26 25 25 23 21 20 20 21 22 23 25 26 26 27 27 28 29 31 32 32 32 32 32 31 30 30 29 29 28 28 28 27
13 13 11 11 12 13 16 20 23 23 25 26 27 29 30 28 27 25 23 24 23 23 22 21 23 24 26 27 28 28 29 29 30 32 33 34 33 33 33 32 32 31 30 30 29 29 28 28 28
9 9 9 11 12 12 16 19 21 21 22 24 25 27 27 26 25 23 22 22 23 23 23 24 25 26 27 28 30 30 30 31 32 33 34 35 34 33 33 32 32 32 32 31 31 29 29 28 29
5 6 8 10 12 13 17 19 21 21 22 23 25 25 25 24 23 22 21 21 22 23 23 24 25 27 28 28 28 30 31 33 34 35 36 36 35 34 33 32 32 33 32 31 29 29 29 28 29
4 7 8 9 12 14 16 19 22 22 22 23 24 23 23 22 22 21 21 21 21 22 23 24 26 27 29 29 29 31 32 34 35 36 37 36 35 35 35 34 32 32 31 31 30 29 29 28 29
5 7 8 8 10 13 17 18 22 23 22 23 24 22 20 19 19 19 19 19 20 21 22 24 26 27 28 29 31 32 33 35 36 37 37 38 37 36 36 35 33 32 32 31 31 31 30 30 29
7 8 9 11 12 14 17 20 21 22 21 18 18 17 15 14 15 15 16 17 19 21 23 25 26 28 29 30 32 34 35 36 37 38 38 37 38 37 37 35 34 34 33 32 32 31 31 31 31
7 9 10 11 12 14 17 19 19 20 19 14 14 13 11 12 12 13 14 17 19 22 24 26 28 29 31 32 33 35 36 37 37 38 38 38 37 37 36 36 36 35 35 34 33 32 32 32 32
6 8 10 11 12 15 16 16 14 14 13 11 11 8 9 10 10 12 15 17 19 21 23 26 27 29 30 32 33 34 35 36 37 38 38 39 38 38 39 38 38 37 36 35 34 33 33 32 32
7 8 11 13 14 15 15 14 12 11 10 10 8 6 7 9 10 13 15 17 19 22 24 25 27 28 29 31 32 34 35 37 38 38 39 40 40 39 39 39 39 38 38 37 37 36 35 34 34
8 10 11 13 14 15 14 12 11 11 10 9 7 5 6 9 11 14 16 19 21 23 25 26 27 29 30 31 33 34 36 37 38 39 40 40 40 40 39 39 38 38 38 37 37 37 36 36 35
8 10 11 11 13 13 13 13 12 11 11 11 10 10 9 11 14 16 18 20 23 25 27 28 30 31 32 33 34 35 36 37 38 39 39 39 39 39 39 38 37 37 37 38 38 38 38 38 37
8 10 10 12 12 12 13 13 12 13 13 13 12 12 12 14 16 19 22 24 26 28 30 31 33 34 34 35 36 37 37 38 38 39 38 38 39 39 39 39 39 38 38 38 39 39 39 39 39
11 10 11 11 11 11 11 12 12 14 14 15 15 16 17 19 21 24 26 29 31 32 34 35 36 36 37 38 38 38 39 39 39 39 39 39 39 39 39 40 40 39 39 39 39 39 40 40 40
12 12 10 10 11 11 11 12 14 15 16 17 18 20 22 24 26 28 29 31 33 35 37 38 38 39 40 40 40 41 41 41 41 40 40 40 40 41 41 41 42 42 42 41 40 40 41 41 41
8 8 9 10 11 13 14 15 16 17 18 19 21 23 25 26 28 29 31 33 35 36 38 40 40 41 41 41 42 42 42 42 41 41 41 41 41 42 43 43 43 43 43 43 43 43 43 42 42
5 7 9 10 11 14 16 17 18 19 20 21 23 25 26 28 29 30 32 34 36 37 39 40 41 42 42 42 43 43 43 42 41 41 41 41 41 41 42 42 43 43 44 44 45 45 44 44 44
Wind_Direction
18 33 40 51 47 17 0 13 21 6 9 8 6 353 345 349 354 348 343 347 346 347 345 340 337 337 335 335 337 339 341 344 347 349 349 350 351 351 349 347 346 346 345 342 339 338 339 338 343
349 359 17 38 23 1 8 21 16 360 356 351 347 343 342 339 338 332 331 333 337 339 338 335 331 329 326 326 326 327 326 328 331 333 335 337 337 337 337 335 332 331 331 328 324 321 320 320 320
331 336 353 10 1 12 19 14 2 350 338 335 334 335 333 325 322 318 321 326 330 328 328 327 323 318 316 315 317 316 314 315 318 319 321 323 324 324 323 321 318 317 316 315 313 311 309 308 307
321 324 328 320 310 328 355 6 346 326 325 320 323 322 324 320 313 312 317 320 320 320 318 316 309 307 307 307 307 308 307 308 309 310 310 310 311 311 311 310 307 305 304 303 302 302 300 298 297
313 315 316 299 283 297 332 347 334 317 310 311 313 314 316 317 314 309 308 310 309 309 308 306 305 303 302 301 300 300 301 304 306 305 304 303 303 303 302 300 300 301 300 296 294 293 292 290 287
306 307 306 291 277 286 328 331 314 305 302 303 306 309 312 311 308 303 302 299 299 298 299 300 298 297 298 297 296 298 298 300 303 303 303 302 302 301 301 299 296 294 293 292 289 288 285 282 280
297 299 295 271 250 260 297 309 294 288 294 296 299 304 309 308 303 297 292 289 290 290 290 290 290 292 295 296 299 298 298 299 300 300 300 300 301 301 300 298 295 290 286 285 283 283 283 278 276
290 291 285 260 235 241 248 261 281 283 288 291 297 304 308 308 303 298 291 285 284 283 282 284 287 290 293 296 299 301 300 299 299 299 297 298 298 298 297 296 295 291 287 283 280 278 278 276 272
285 284 274 253 236 233 234 238 261 273 280 286 292 298 303 305 302 296 292 289 280 275 276 281 284 287 290 294 297 299 299 299 299 300 299 298 297 296 296 294 295 290 286 282 279 277 275 273 270
280 277 263 249 241 231 232 235 252 266 274 280 287 294 300 301 299 296 292 289 279 272 272 276 280 286 291 292 293 295 296 296 297 299 300 298 297 296 295 293 293 289 284 282 280 278 276 271 268
275 271 259 246 240 234 235 237 246 258 266 275 282 288 292 295 296 294 291 287 279 274 271 271 276 282 287 288 288 289 290 293 295 296 296 296 296 296 295 292 292 291 289 284 281 278 277 270 264
270 266 259 246 239 236 237 241 247 255 264 271 277 282 286 291 293 293 293 284 282 276 270 268 277 281 283 285 286 286 288 290 293 294 294 295 294 294 291 289 288 289 288 286 282 280 278 272 265
268 264 259 250 242 238 238 244 252 258 261 269 277 282 287 288 290 289 286 288 283 279 278 276 282 281 284 284 284 285 286 287 290 291 292 293 291 292 291 289 287 285 284 284 281 278 277 274 269
266 261 259 252 239 240 240 245 253 257 264 271 277 282 283 287 287 287 287 286 285 282 284 283 283 284 285 285 286 287 288 289 289 290 292 293 293 291 290 290 286 285 283 284 283 280 278 277 272
263 254 247 242 237 240 246 249 255 262 269 274 278 282 286 286 286 286 285 287 288 290 290 291 288 287 287 288 288 290 291 293 294 292 292 293 292 292 290 288 285 283 283 285 283 279 276 274 270
259 253 235 231 231 236 246 252 258 266 272 276 281 284 286 288 290 289 286 285 289 293 294 293 292 290 290 290 291 291 291 293 294 295 294 295 294 294 292 289 286 284 285 285 281 278 275 273 270
268 269 245 239 241 243 250 258 262 264 270 275 281 282 283 286 290 289 289 288 290 292 294 292 293 294 293 292 292 293 291 293 294 294 294 293 292 293 291 288 286 284 283 284 280 277 274 272 268
284 288 267 257 261 258 260 260 260 264 272 274 277 278 279 285 288 289 290 290 291 291 291 292 293 294 292 291 292 292 292 292 293 293 292 291 290 291 289 288 286 283 282 281 278 277 272 270 266
304 309 299 292 291 276 267 267 265 266 273 273 273 275 278 282 284 288 289 291 292 294 294 294 295 295 295 293 292 292 292 291 291 291 291 291 290 289 288 286 285 283 282 281 277 275 271 268 264
304 306 318 319 304 294 282 281 284 280 280 274 269 275 279 277 283 285 291 296 298 298 298 298 298 298 297 295 294 293 292 292 291 290 290 289 288 287 285 284 283 282 280 279 276 274 269 266 264
312 318 320 323 315 308 304 300 297 296 294 284 280 276 274 289 297 297 301 303 303 303 303 302 301 300 298 296 295 294 294 294 292 292 291 289 287 285 284 283 282 280 278 275 273 272 269 265 263
334 328 326 326 322 314 310 312 308 308 303 299 292 290 290 296 301 302 304 306 307 307 306 304 302 301 300 298 297 296 295 294 293 292 291 290 288 286 284 282 280 279 277 274 271 268 267 264 261
324 325 323 323 323 324 322 321 321 322 315 311 309 301 293 301 309 310 312 313 314 313 311 309 307 305 303 301 299 298 297 296 294 293 292 290 288 286 284 282 279 277 275 273 270 267 265 262 258
323 323 320 325 327 331 336 338 338 343 343 338 338 339 324 326 326 323 321 321 319 317 316 314 312 309 307 304 303 301 299 298 296 295 293 292 290 287 284 281 279 276 274 271 269 266 264 261 257
316 318 321 329 337 344 352 354 354 359 3 1 359 358 353 344 335 329 329 327 324 322 321 319 316 314 312 310 308 305 303 301 299 297 295 293 291 289 286 283 280 277 274 271 268 265 262 259 256
318 318 325 329 338 349 357 4 9 9 7 5 359 358 356 347 340 336 334 332 329 327 325 323 321 319 317 315 312 310 307 305 302 300 297 295 292 290 287 284 281 279 276 272 269 265 261 258 255
319 319 327 330 333 336 345 354 2 2 2 2 360 354 350 347 344 340 337 335 332 330 329 327 325 323 320 318 315 313 310 307 305 301 298 296 294 291 288 286 282 280 277 273 270 266 262 258 254
311 318 324 324 331 335 338 342 354 358 356 356 355 352 349 346 343 340 337 333 331 330 329 327 324 323 321 318 316 314 311 308 305 302 300 298 295 292 290 287 284 281 278 275 271 268 264 259 254
307 317 332 333 335 337 338 344 352 356 357 356 354 350 346 343 339 336 333 331 330 328 327 326 324 323 321 319 317 315 312 309 306 303 301 298 296 293 291 288 285 281 278 275 272 268 265 260 255
325 339 346 342 336 339 342 349 353 356 356 354 350 345 342 339 336 333 331 330 329 327 327 326 325 323 321 319 318 316 314 310 307 305 303 301 299 296 292 289 286 283 279 276 272 268 265 261 256
Height
5934 5933 5933 5933 5934 5933 5931 5929 5928 5927 5926 5926 5927 5927 5926 5926 5926 5926 5923 5921 5920 5919 5918 5917 5917 5916 5915 5915 5914 5913 5912 5911 5910 5909 5908 5907 5906 5906 5904 5903 5902 5901 5900 5899 5898 5898 5897 5897 5896
5933 5933 5933 5933 5932 5931 5930 5929 5927 5925 5925 5925 5925 5926 5925 5924 5923 5922 5921 5920 5919 5918 5917 5917 5916 5915 5914 5914 5913 5912 5911 5910 5909 5908 5907 5906 5905 5904 5903 5902 5901 5900 5899 5898 5898 5897 5896 5896 5895
5932 5931 5932 5932 5931 5930 5928 5927 5926 5925 5924 5924 5923 5924 5924 5923 5922 5920 5919 5918 5918 5917 5916 5916 5915 5914 5913 5912 5912 5911 5910 5909 5907 5906 5905 5905 5904 5903 5902 5901 5900 5899 5898 5897 5896 5895 5895 5895 5894
5932 5931 5931 5931 5929 5928 5926 5924 5923 5923 5923 5922 5922 5922 5922 5922 5921 5919 5917 5917 5916 5916 5915 5914 5913 5913 5912 5911 5910 5909 5908 5907 5906 5905 5904 5903 5902 5901 5900 5899 5898 5897 5896 5895 5894 5894 5893 5893 5892
5930 5930 5929 5928 5927 5925 5923 5922 5921 5921 5920 5920 5920 5920 5920 5920 5919 5917 5916 5915 5914 5914 5913 5912 5912 5911 5910 5909 5908 5907 5906 5905 5904 5902 5901 5900 5899 5898 5898 5897 5896 5895 5894 5893 5892 5891 5891 5890 5890
5929 5928 5928 5926 5925 5922 5920 5919 5918 5917 5917 5917 5918 5917 5917 5917 5916 5915 5913 5913 5912 5911 5911 5910 5909 5908 5908 5906 5905 5904 5903 5902 5901 5900 5899 5897 5896 5896 5895 5894 5893 5892 5891 5891 5890 5889 5888 5888 5887
5926 5926 5925 5924 5922 5920 5918 5916 5915 5915 5914 5915 5915 5914 5914 5914 5914 5913 5911 5910 5909 5909 5908 5907 5906 5906 5905 5904 5903 5901 5900 5899 5898 5897 5895 5894 5893 5892 5891 5890 5889 5889 5888 5887 5886 5886 5885 5884 5884
5922 5923 5922 5921 5919 5916 5914 5912 5912 5912 5911 5911 5911 5911 5910 5910 5910 5910 5909 5907 5906 5906 5905 5904 5903 5903 5902 5901 5900 5898 5897 5896 5894 5893 5892 5890 5889 5888 5887 5886 5885 5884 5884 5883 5882 5882 5881 5881 5880
5917 5919 5918 5917 5915 5914 5911 5909 5909 5908 5908 5908 5907 5907 5907 5906 5905 5905 5905 5904 5903 5902 5901 5901 5900 5899 5898 5897 5896 5895 5893 5892 5890 5889 5887 5886 5885 5884 5883 5881 5880 5879 5878 5878 5877 5876 5876 5876 5876
5911 5913 5913 5912 5911 5910 5907 5906 5906 5905 5904 5904 5904 5903 5903 5902 5901 5901 5900 5899 5898 5897 5896 5896 5896 5895 5894 5893 5892 5890 5889 5887 5886 5884 5883 5881 5880 5879 5878 5876 5875 5874 5873 5872 5871 5870 5870 5870 5870
5905 5906 5907 5906 5906 5905 5903 5903 5902 5901 5900 5900 5900 5899 5898 5896 5895 5895 5895 5894 5893 5892 5891 5891 5890 5890 5889 5887 5886 5885 5884 5883 5881 5879 5877 5876 5875 5873 5872 5870 5869 5867 5866 5865 5864 5864 5864 5864 5864
5899 5899 5900 5900 5900 5900 5899 5898 5898 5897 5897 5896 5895 5894 5893 5892 5890 5890 5889 5886 5887 5886 5885 5885 5885 5884 5883 5882 5881 5880 5879 5877 5876 5874 5871 5870 5868 5867 5865 5864 5862 5861 5860 5858 5857 5857 5857 5857 5857
5892 5893 5893 5893 5894 5894 5894 5893 5893 5892 5892 5892 5891 5890 5889 5887 5885 5883 5882 5880 5880 5881 5880 5879 5879 5878 5878 5876 5875 5874 5873 5871 5869 5867 5865 5863 5861 5860 5858 5856 5854 5853 5852 5851 5850 5850 5850 5850 5850
5887 5887 5888 5889 5889 5888 5889 5888 5887 5886 5887 5887 5887 5885 5884 5882 5880 5879 5878 5875 5875 5874 5875 5874 5873 5872 5871 5870 5868 5867 5866 5864 5862 5860 5858 5856 5854 5852 5850 5849 5847 5846 5845 5844 5844 5843 5842 5842 5843
5883 5884 5884 5884 5884 5884 5884 5882 5882 5883 5883 5883 5882 5881 5879 5877 5876 5875 5873 5872 5869 5867 5868 5868 5867 5866 5865 5863 5861 5860 5858 5857 5855 5853 5851 5848 5846 5845 5843 5841 5840 5838 5837 5836 5836 5836 5835 5835 5835
5880 5881 5881 5880 5879 5879 5880 5877 5877 5878 5879 5878 5877 5876 5874 5872 5871 5870 5868 5867 5865 5864 5863 5863 5862 5860 5858 5856 5855 5853 5851 5849 5847 5845 5843 5840 5838 5836 5835 5833 5831 5830 5829 5828 5828 5827 5827 5827 5828
5877 5877 5877 5877 5876 5876 5875 5874 5873 5874 5874 5873 5872 5871 5868 5868 5867 5866 5865 5864 5862 5861 5860 5858 5856 5855 5853 5850 5848 5846 5844 5841 5839 5837 5834 5832 5829 5828 5827 5825 5823 5822 5821 5820 5820 5819 5819 5820 5820
5875 5874 5873 5874 5873 5872 5872 5870 5870 5869 5869 5868 5867 5866 5864 5863 5862 5862 5861 5859 5858 5857 5856 5854 5852 5849 5846 5843 5841 5840 5837 5834 5832 5829 5826 5824 5822 5820 5819 5817 5815 5814 5813 5813 5812 5811 5811 5811 5812
5873 5872 5871 5871 5870 5869 5868 5867 5866 5865 5864 5863 5862 5861 5861 5860 5859 5858 5856 5855 5853 5852 5850 5848 5846 5843 5840 5837 5835 5832 5829 5827 5824 5821 5819 5816 5814 5812 5810 5809 5807 5806 5805 5804 5804 5803 5803 5803 5804
5871 5870 5869 5869 5868 5867 5865 5865 5864 5862 5859 5857 5856 5857 5857 5857 5856 5854 5853 5851 5849 5847 5845 5843 5840 5837 5834 5830 5827 5824 5821 5818 5816 5813 5810 5808 5805 5803 5801 5800 5798 5797 5797 5796 5795 5795 5795 5795 5795
5869 5869 5868 5867 5865 5864 5863 5861 5859 5857 5854 5852 5852 5853 5854 5854 5852 5851 5849 5848 5846 5843 5840 5837 5833 5830 5826 5823 5819 5816 5812 5809 5806 5803 5800 5798 5796 5793 5792 5790 5789 5788 5787 5787 5786 5786 5786 5787 5787
5867 5867 5866 5865 5864 5862 5860 5858 5856 5853 5851 5849 5849 5850 5851 5850 5850 5849 5847 5844 5842 5839 5836 5832 5828 5824 5819 5815 5811 5808 5804 5800 5797 5794 5791 5788 5786 5783 5781 5780 5778 5777 5777 5777 5777 5777 5777 5778 5779
5866 5865 5864 5863 5862 5860 5858 5855 5854 5852 5850 5849 5847 5847 5848 5848 5847 5845 5843 5840 5837 5834 5830 5826 5821 5817 5812 5808 5803 5799 5795 5791 5787 5784 5780 5777 5774 5772 5770 5768 5767 5766 5766 5766 5766 5766 5767 5768 5769
5864 5863 5863 5862 5860 5859 5856 5854 5852 5850 5848 5848 5846 5844 5844 5844 5843 5841 5838 5834 5831 5827 5823 5819 5814 5809 5805 5800 5795 5790 5786 5781 5777 5773 5769 5766 5763 5760 5758 5757 5755 5754 5754 5754 5754 5755 5756 5757 5759
5863 5863 5862 5861 5859 5858 5855 5853 5852 5849 5848 5847 5844 5842 5841 5840 5838 5836 5832 5829 5825 5821 5816 5811 5806 5801 5796 5791 5786 5781 5776 5771 5767 5763 5759 5755 5751 5748 5746 5744 5743 5742 5742 5742 5742 5743 5744 5746 5747
5862 5861 5861 5859 5857 5855 5853 5851 5851 5849 5847 5844 5841 5839 5838 5836 5834 5831 5827 5823 5819 5814 5809 5804 5798 5792 5787 5781 5776 5771 5766 5761 5756 5752 5747 5743 5740 5737 5734 5732 5731 5730 5729 5729 5729 5730 5732 5733 5735
5861 5860 5858 5857 5855 5853 5851 5850 5849 5847 5844 5842 5839 5837 5835 5832 5829 5825 5820 5816 5811 5806 5801 5795 5790 5784 5778 5772 5767 5761 5756 5750 5746 5741 5736 5732 5728 5725 5722 5719 5718 5716 5716 5716 5716 5717 5718 5720 5722
5859 5858 5857 5855 5853 5851 5849 5848 5847 5844 5842 5839 5836 5833 5830 5827 5823 5819 5815 5810 5805 5800 5794 5788 5782 5776 5769 5763 5757 5751 5745 5740 5735 5730 5725 5720 5716 5713 5709 5707 5705 5703 5702 5701 5702 5703 5704 5706 5708
5858 5857 5854 5852 5850 5849 5847 5848 5844 5841 5838 5835 5832 5829 5826 5823 5819 5815 5811 5806 5800 5794 5788 5781 5774 5768 5761 5755 5748 5742 5735 5729 5724 5718 5713 5708 5704 5700 5696 5693 5690 5689 5687 5687 5687 5688 5689 5691 5694
5855 5854 5853 5851 5849 5847 5845 5847 5841 5838 5835 5832 5829 5826 5823 5820 5816 5811 5806 5801 5795 5789 5782 5775 5768 5760 5753 5746 5739 5732 5725 5719 5713 5707 5701 5696 5691 5686 5682 5679 5676 5674 5672 5671 5670 5671 5672 5675 5678